Lapse_Rate
7.5 7.5 7.5 7.5 7.5 7.4 7.3 7.3 7.4 7.5 7.7 7.9 8.0 8.2 8.1 8.0 8.0 8.0 7.9 7.7 7.5 7.4 7.1 7.1 7.1 7.0 7.0 7.1 7.0 6.8 6.7 6.8 6.8 6.7 6.8 6.7 6.6 6.5 6.3 6.2 6.2 6.1 5.7
8.0 7.6 7.4 7.3 7.3 7.3 7.4 7.4 7.5 7.4 7.7 8.0 8.2 8.2 8.3 8.2 8.1 7.7 7.6 7.3 7.2 7.0 6.8 6.9 6.9 6.9 6.9 6.8 6.9 6.8 6.7 6.7 6.9 6.8 7.0 6.9 6.7 6.8 6.4 6.1 6.1 5.9 5.8
8.0 7.6 7.3 7.3 7.6 7.6 7.6 7.7 7.7 7.9 8.0 7.9 8.1 8.1 8.0 7.7 7.5 7.5 7.4 7.2 7.0 7.0 6.9 6.8 6.8 6.8 6.8 7.1 7.3 7.3 7.2 6.9 6.9 7.0 6.9 6.8 6.8 5.7 5.9 6.1 6.1 6.1 5.8
7.6 7.6 7.8 7.7 7.6 7.5 7.7 7.8 7.9 7.9 7.9 7.8 7.8 7.8 7.7 7.5 7.4 7.4 7.3 7.3 7.2 7.3 7.3 7.3 7.3 7.1 7.1 6.9 7.1 7.3 7.2 6.9 6.9 6.9 6.9 6.8 6.2 6.7 6.4 6.3 6.0 6.1 5.8
7.7 7.9 7.8 7.7 7.7 7.7 7.7 7.7 7.7 7.8 7.8 7.7 7.6 7.5 7.3 7.2 7.2 7.2 7.1 7.1 7.0 6.9 7.0 7.1 7.2 7.2 7.1 7.0 7.0 7.1 6.9 6.8 6.6 6.7 6.6 6.8 6.7 7.0 6.6 6.2 5.7 5.9 6.1
7.7 7.7 7.6 7.6 7.7 7.7 7.6 7.6 7.6 7.5 7.3 7.0 6.8 6.7 6.8 6.9 6.9 6.9 7.0 6.8 6.8 6.8 6.8 6.8 6.9 7.0 7.0 6.9 6.9 6.9 6.8 6.5 6.6 6.6 6.4 6.3 6.8 6.7 6.6 6.5 6.3 6.1 6.0
7.5 7.5 7.5 7.5 7.5 7.4 7.3 7.2 7.1 7.0 6.8 6.8 6.9 7.0 6.9 6.8 6.9 6.9 6.9 6.8 6.7 6.7 6.7 6.7 6.8 6.8 6.8 6.8 6.9 6.9 6.7 6.5 6.5 6.5 6.3 6.9 5.8 6.6 6.3 6.5 6.4 6.3 6.0
7.3 7.3 7.3 7.3 7.1 7.0 6.9 6.9 6.9 7.0 7.1 7.1 7.2 7.0 6.9 6.9 6.8 7.0 6.9 6.8 6.8 6.8 6.9 7.0 6.8 6.8 6.8 6.8 6.7 6.7 6.8 6.9 6.8 6.7 6.7 6.4 6.7 6.6 6.5 6.9 6.6 6.1 5.9
7.4 7.2 7.2 7.2 6.9 6.8 6.9 7.0 7.0 7.0 7.1 7.1 7.0 7.0 6.9 6.8 6.8 6.7 6.8 6.7 6.7 6.7 6.7 6.7 6.7 6.9 6.8 6.8 6.8 6.8 6.8 7.0 7.0 6.7 7.0 6.3 7.1 6.8 6.5 6.5 6.8 6.6 6.4
7.2 7.1 7.0 6.8 6.7 6.8 6.9 7.0 7.1 7.1 7.0 7.0 6.9 6.7 6.6 6.6 6.6 6.5 6.5 6.5 6.6 6.6 6.6 6.6 6.5 6.5 6.5 6.5 6.6 6.6 6.6 6.5 6.5 6.7 6.5 6.6 6.8 6.5 6.5 6.5 6.3 6.4 6.3
7.0 6.9 6.7 6.5 6.5 6.5 6.7 6.8 6.8 6.7 6.7 6.6 6.5 6.6 6.6 6.6 6.6 6.6 6.7 6.7 6.7 6.7 6.7 6.6 6.6 6.4 6.4 6.4 6.3 6.2 6.2 6.3 6.4 6.2 5.7 7.0 6.6 6.5 6.5 6.3 6.3 6.1 6.1
6.5 6.5 6.4 6.5 6.7 6.7 6.6 6.4 6.5 6.6 6.6 6.6 6.7 6.7 6.6 6.6 6.6 6.4 6.6 6.5 6.7 6.6 6.5 6.7 6.6 6.6 6.5 6.4 6.2 6.4 6.1 6.1 5.9 6.0 5.8 6.3 6.1 6.2 6.3 6.2 6.3 6.3 6.2
6.0 5.9 6.5 6.6 6.7 6.5 6.3 6.3 6.3 6.4 6.5 6.5 6.5 6.4 6.4 6.5 6.6 6.5 6.4 6.3 6.4 6.5 6.5 6.3 6.4 6.6 6.4 6.4 6.3 6.2 6.2 6.1 5.8 5.7 5.7 6.0 6.0 5.9 6.0 6.1 6.1 6.1 6.2
6.1 5.9 6.0 6.4 6.4 6.4 6.4 6.4 6.5 6.5 6.4 6.4 6.4 6.6 6.6 6.7 6.7 6.6 6.5 6.4 6.2 6.0 6.1 6.1 5.9 6.0 6.1 6.1 6.1 6.0 6.0 6.1 6.0 6.0 5.6 5.9 5.8 5.9 6.0 5.9 6.0 6.0 6.0
6.2 6.1 5.9 6.5 6.6 6.6 6.5 6.4 6.5 6.6 6.6 6.6 6.6 6.7 6.7 6.6 6.4 6.3 6.2 6.1 6.1 5.9 5.8 5.8 5.8 5.8 5.9 5.9 6.0 5.9 5.8 5.7 5.7 5.7 5.5 6.0 5.8 5.7 5.6 5.8 5.9 5.9 5.9
6.6 6.3 6.1 6.0 6.5 6.4 6.4 6.5 6.7 6.9 6.7 6.5 6.4 6.5 6.4 6.3 6.2 6.1 5.9 5.8 5.8 5.8 5.8 5.7 5.7 5.7 5.7 5.6 5.7 5.8 5.9 5.9 5.8 5.9 5.6 5.4 5.9 5.8 5.7 5.7 5.6 5.6 5.8
6.7 6.7 6.5 6.1 6.5 6.6 6.6 6.8 6.8 6.6 6.5 6.4 6.4 6.3 5.9 5.7 5.5 5.7 5.7 5.6 5.6 5.7 5.7 5.8 5.8 5.7 5.8 5.8 5.6 5.6 5.6 5.6 5.5 5.4 5.7 5.5 5.5 6.1 5.9 5.8 5.8 5.5 5.5
6.9 6.7 6.5 6.1 6.7 6.7 6.7 6.6 6.7 6.5 6.3 6.1 6.1 6.0 6.0 5.9 6.0 6.0 6.0 5.9 5.7 5.7 5.6 5.7 5.8 5.7 5.5 5.5 5.5 5.5 5.2 5.1 5.2 5.3 5.3 5.2 5.0 4.8 5.8 5.9 6.0 6.0 5.8
6.7 6.7 6.5 6.2 6.7 6.9 6.8 6.6 6.7 6.6 6.3 6.0 6.0 5.9 5.9 5.6 5.6 5.5 5.5 5.8 5.7 5.5 5.6 5.6 5.7 5.6 5.5 5.8 5.8 5.7 5.6 5.9 5.6 5.2 5.0 5.2 5.6 5.0 4.5 5.0 5.6 5.6 5.7
6.6 6.9 6.7 6.4 6.5 7.0 6.6 6.8 6.6 6.5 6.2 6.3 6.2 6.1 5.9 5.7 5.7 5.6 5.4 5.4 5.5 5.3 5.3 5.5 5.6 5.8 5.7 5.6 5.9 5.6 5.7 5.4 5.5 5.6 5.5 5.6 5.3 5.2 5.5 4.8 4.5 5.3 5.3
7.3 7.2 6.7 6.2 7.0 6.9 6.8 6.8 6.7 6.5 6.4 6.3 6.1 5.9 5.6 5.5 5.2 5.2 5.2 5.2 5.4 5.4 5.4 5.6 5.6 5.6 5.6 6.0 5.8 5.9 5.9 6.2 5.8 5.6 5.9 5.6 5.3 5.0 5.1 5.8 4.9 5.0 4.8
7.4 7.2 7.2 6.9 6.9 6.9 6.7 7.0 6.8 6.6 6.3 6.3 5.9 5.8 5.5 5.4 5.3 5.4 5.4 5.6 5.7 5.7 5.7 5.8 5.9 5.9 6.0 6.3 6.2 6.1 5.8 5.8 5.9 5.5 5.2 5.6 6.0 5.6 5.2 5.1 5.4 5.3 5.3
7.3 7.2 7.1 7.0 7.0 7.0 6.9 6.6 6.5 6.4 6.3 6.0 5.7 5.6 5.6 5.6 5.9 6.1 6.2 6.1 5.9 5.8 5.7 5.8 6.1 6.2 6.1 6.3 6.6 6.4 6.1 5.9 5.8 5.9 5.8 5.2 5.0 5.0 5.6 5.7 5.2 5.5 5.6
7.2 7.1 7.2 7.1 6.9 6.8 6.9 6.7 6.6 6.3 6.0 5.8 5.6 5.7 6.0 5.7 6.3 6.4 6.3 6.3 6.2 6.1 6.0 6.2 6.2 6.3 6.4 6.3 6.4 6.5 6.3 6.1 6.2 6.2 6.5 6.4 5.9 5.7 5.3 5.4 5.5 5.0 5.8
6.9 6.9 6.7 6.7 6.7 6.7 6.6 6.5 6.1 6.1 6.1 6.1 6.1 6.2 6.9 6.6 6.4 6.2 6.1 6.0 6.0 6.1 6.3 6.3 6.4 6.5 6.6 6.5 6.5 6.4 6.4 6.4 5.9 6.1 6.0 6.6 6.8 6.4 6.2 5.9 5.7 5.3 5.0
6.8 6.7 6.7 6.7 6.5 6.3 5.8 5.9 6.0 6.1 6.1 6.2 6.5 6.7 6.7 6.6 6.3 6.0 5.9 5.9 6.0 6.1 6.3 6.5 6.4 6.4 6.4 6.3 6.3 6.3 6.1 6.1 5.8 5.6 5.5 5.5 6.0 6.7 6.5 6.5 6.0 5.2 5.1
Wind_Speed
9 14 11 7 8 6 5 6 9 11 11 13 15 15 15 15 14 14 12 12 12 12 12 11 10 9 8 7 8 9 10 11 8 5 4 2 1 2 3 2 8 8 15
12 15 9 7 10 8 6 6 9 8 12 15 15 15 14 13 11 11 11 12 12 12 11 12 11 11 10 9 10 9 8 9 9 9 7 9 7 6 4 1 7 11 12
12 16 13 11 6 7 7 7 8 11 13 14 13 10 10 10 9 8 9 10 10 10 10 9 10 9 9 10 9 7 8 9 9 9 11 15 9 6 8 1 5 8 9
12 15 16 13 11 7 9 9 8 9 10 10 11 10 8 7 6 8 9 9 9 10 9 9 9 8 8 8 8 8 8 9 11 11 14 15 9 11 7 5 3 5 5
10 18 15 13 12 12 10 9 7 8 9 9 9 8 6 7 7 7 7 8 9 8 9 10 10 10 8 6 6 7 9 12 12 13 17 7 14 9 8 5 7 9 7
12 18 14 11 11 11 10 10 10 10 8 8 8 6 7 6 8 8 9 9 11 12 13 13 13 13 12 11 9 7 6 8 12 17 19 1 7 12 7 2 3 2 6
11 16 14 12 12 10 8 8 7 8 9 8 7 8 7 7 7 7 8 10 11 11 12 12 13 13 12 12 10 9 9 10 12 16 14 4 8 11 3 1 1 2 2
11 12 11 9 7 7 8 7 7 8 9 9 9 7 7 8 7 8 8 9 10 11 11 11 10 9 8 9 10 10 9 9 14 10 10 13 17 15 5 5 4 3 2
11 10 11 11 8 6 6 6 6 6 7 7 6 6 6 6 5 5 5 6 7 7 7 6 6 5 5 5 7 8 9 12 13 9 4 8 13 9 5 2 4 7 6
8 9 8 6 8 7 11 8 6 5 4 4 5 4 3 5 7 5 4 6 5 6 6 5 5 4 5 6 4 6 11 15 16 6 4 12 11 8 7 4 6 9 13
8 7 4 8 5 4 6 9 9 8 7 7 6 5 6 5 2 3 8 3 1 2 3 3 4 7 10 11 9 7 12 12 6 9 10 11 8 5 5 5 5 7 12
9 8 9 4 5 3 3 3 4 2 2 4 6 5 5 6 5 5 3 7 8 7 11 10 9 10 15 12 7 12 11 8 11 5 6 10 6 5 5 4 5 8 10
12 9 8 5 3 2 6 5 1 2 3 3 1 7 9 8 6 7 8 5 6 6 10 8 7 8 11 10 10 11 11 11 11 9 10 9 4 4 5 5 6 5 5
12 11 8 7 4 1 3 0 3 2 6 3 8 4 7 8 9 9 9 11 11 11 10 10 11 9 9 9 9 9 9 9 10 9 9 7 1 4 4 4 5 6 5
10 9 9 8 5 3 1 2 2 3 3 4 3 5 7 7 6 9 10 10 10 11 11 10 11 10 9 10 9 10 10 9 9 10 5 10 4 4 3 2 3 4 5
11 11 8 8 6 4 2 1 1 2 2 2 3 7 5 6 7 8 8 9 10 11 11 12 11 9 9 11 9 10 10 12 11 10 12 10 11 7 3 1 1 2 1
8 9 10 7 8 4 4 4 1 4 3 2 3 2 3 5 7 9 9 8 12 13 13 13 12 12 9 9 11 9 11 13 13 12 11 13 14 12 9 5 4 4 2
10 7 8 8 9 6 5 5 1 2 2 4 2 3 2 4 7 10 8 8 13 13 14 9 10 10 10 10 9 10 10 11 14 13 14 15 13 14 14 12 9 8 6
5 6 8 10 9 7 7 4 2 2 6 6 4 5 7 7 7 9 10 12 14 13 9 9 10 10 10 11 11 11 10 10 11 13 13 15 15 14 14 19 15 12 10
3 3 9 9 5 3 2 2 4 3 4 4 4 5 6 7 9 10 11 12 14 9 9 10 11 11 11 12 14 14 11 11 10 10 12 15 17 17 18 14 16 16 17
2 3 5 10 5 3 3 3 4 4 5 5 5 5 9 10 11 11 11 10 11 10 10 11 11 13 11 11 12 12 12 14 14 12 11 11 13 17 18 18 14 13 18
9 10 7 7 4 3 3 4 3 4 4 5 5 10 10 11 14 13 11 10 11 10 11 11 12 10 11 10 11 12 14 13 13 14 14 13 15 11 12 18 17 16 11
9 8 9 8 8 8 6 5 6 5 5 6 9 9 11 18 17 16 15 12 11 10 10 11 11 14 12 11 13 12 14 14 12 12 13 14 15 11 12 12 17 16 15
10 9 9 7 6 7 9 7 8 6 7 7 8 9 10 18 17 18 17 15 11 9 11 11 10 11 12 13 11 12 15 16 15 15 14 10 11 9 11 11 11 15 16
8 7 5 4 6 5 5 4 5 8 9 10 10 11 11 11 18 19 18 15 12 10 10 11 11 10 10 10 10 10 12 11 10 6 11 12 8 11 7 7 11 8 15
6 4 3 5 3 3 4 5 9 9 7 9 10 10 9 10 11 16 19 14 14 11 9 9 9 10 7 8 8 7 7 5 8 6 9 12 12 6 6 5 6 8 10
Wind_Direction
126 104 100 108 140 134 128 86 73 75 83 84 87 83 78 68 63 58 52 43 35 27 23 17 15 5 346 341 354 346 341 336 322 329 322 319 104 63 102 150 168 129 126
113 110 104 118 155 140 116 85 64 60 69 71 70 80 70 69 63 51 44 40 35 28 25 25 24 19 7 360 2 345 337 327 324 286 282 252 213 171 128 4 338 137 133
123 121 107 62 117 128 113 91 75 68 74 81 89 98 83 76 64 53 53 47 41 35 31 26 27 23 3 356 343 340 335 325 314 306 277 263 200 227 121 83 75 109 132
116 112 94 74 80 112 104 103 98 89 82 82 82 78 77 74 66 50 44 44 40 33 26 29 22 5 357 339 327 305 305 301 300 296 262 246 185 121 124 168 137 138 159
109 94 90 81 80 84 89 88 84 97 89 81 79 78 74 64 56 47 44 48 42 43 42 39 28 18 3 337 314 322 314 303 280 272 258 251 256 130 135 198 184 182 188
114 101 94 86 82 77 72 66 74 85 89 83 80 85 80 66 53 45 42 37 39 35 33 32 30 27 18 3 344 323 306 302 297 259 251 39 259 105 118 72 327 275 162
107 114 104 81 70 65 68 73 76 78 79 78 77 74 67 62 61 61 59 48 45 39 31 28 27 24 16 6 4 356 332 301 277 268 307 262 241 88 103 164 41 325 56
113 109 116 105 92 85 77 69 72 71 71 70 73 76 79 75 69 62 55 45 38 32 26 23 19 14 5 358 354 352 340 315 285 290 322 347 40 40 329 246 221 273 20
126 125 129 134 122 117 107 100 87 82 82 84 89 90 95 98 90 82 74 60 44 33 23 12 0 357 343 335 335 331 318 302 290 356 274 83 42 19 323 306 262 243 253
149 138 128 143 134 156 134 126 113 103 101 117 117 116 162 168 151 152 138 73 33 17 8 354 343 321 294 278 268 290 290 286 264 274 35 72 50 7 338 274 279 278 280
164 138 137 131 96 86 88 116 161 157 178 179 176 175 241 246 317 161 81 63 15 328 277 258 276 280 263 246 231 244 274 269 315 287 85 78 65 347 332 350 334 312 288
167 163 135 137 111 116 94 89 107 106 70 25 16 356 322 12 354 318 220 192 202 215 233 226 226 251 258 313 251 223 259 344 287 304 81 77 40 323 303 308 311 320 324
171 167 147 136 107 346 73 15 354 356 33 26 38 11 339 340 349 321 333 300 317 232 309 287 287 298 343 318 319 312 311 289 279 297 95 80 46 309 293 285 293 300 320
163 168 152 132 140 132 320 122 30 311 28 344 28 341 354 332 347 351 332 334 316 329 324 312 311 322 301 301 294 288 283 289 293 305 111 103 26 292 282 271 261 273 289
169 162 160 143 177 159 151 30 3 310 46 12 14 29 2 345 352 335 338 318 322 317 315 317 313 309 303 286 277 287 282 276 274 274 274 141 161 287 277 249 241 247 259
187 170 169 176 171 169 224 128 258 112 32 17 28 41 17 349 352 323 328 319 314 318 321 317 315 311 303 297 278 265 270 279 272 267 274 170 170 178 220 207 190 171 198
187 203 166 187 153 179 178 184 218 78 316 347 17 48 8 334 332 319 313 311 313 319 311 297 299 291 281 282 284 263 261 256 255 259 256 262 183 183 182 178 160 144 127
219 177 175 168 165 182 162 180 201 115 313 277 283 334 335 327 317 308 305 308 312 307 297 298 295 289 288 285 277 274 279 261 256 247 243 247 247 204 186 173 169 157 141
213 227 196 157 189 175 158 220 199 208 261 349 326 339 18 315 338 317 307 307 312 300 292 294 293 290 285 281 274 270 256 258 263 249 239 237 237 244 220 173 172 178 164
279 234 207 156 181 178 181 213 258 237 263 280 329 25 356 328 339 319 307 301 303 297 295 295 298 292 293 289 285 289 287 275 249 250 250 240 234 224 240 201 184 203 190
93 178 164 104 67 250 226 302 316 308 329 330 325 9 336 352 322 314 304 304 300 295 304 300 293 288 282 281 283 268 263 256 255 251 252 245 241 229 219 237 227 224 190
64 68 80 97 60 359 59 34 10 336 338 312 318 331 317 335 317 312 323 310 307 303 299 293 290 288 283 280 278 280 280 270 257 234 228 233 234 235 220 220 223 236 242
81 86 85 87 79 54 17 30 6 333 330 333 342 325 333 326 319 319 315 313 312 304 298 305 302 297 291 287 281 285 282 273 279 258 242 220 234 225 231 219 206 219 216
86 86 84 75 72 66 31 31 0 348 331 331 306 316 324 317 318 322 320 316 315 304 301 301 307 316 301 291 290 285 284 285 279 282 275 277 226 247 230 240 214 206 220
95 87 73 70 44 48 46 17 349 335 317 317 320 325 314 319 326 322 320 319 311 303 308 305 305 311 311 304 310 319 323 313 310 331 290 285 263 227 235 231 260 213 213
81 60 35 352 358 335 312 306 314 332 318 309 319 323 326 324 320 320 319 319 302 299 309 315 309 329 2 327 320 328 339 348 349 339 327 316 295 290 290 295 203 267 254